| time (UTC) | temp F | wind direction | speed knots | gust knots | rain 1hr in | rain 24hr in | rain mn in | humidity % | barometer mb |
| 20260505063611 | 58 | 170 | 2.6 | 7.8 | 0.00 | 0.00 | 0.00 | 59 | 1009.4 |
| 20260505062650 | 58 | 190 | 4.3 | 9.6 | 0.00 | 0.00 | 0.00 | 59 | 1009.2 |
| 20260505061628 | 59 | 217 | 5.2 | 10.4 | 0.00 | 0.00 | 0.00 | 57 | 1009.1 |
| 20260505060618 | 59 | 115 | 5.2 | 13.0 | 0.00 | 0.00 | 0.00 | 55 | 1008.9 |
| 20260505055648 | 60 | 166 | 4.3 | 9.6 | 0.00 | 0.00 | 0.00 | 53 | 1008.7 |
| 20260505054612 | 61 | 190 | 6.1 | 9.6 | 0.00 | 0.00 | 0.00 | 50 | 1008.4 |
| 20260505053611 | 61 | 177 | 3.5 | 7.8 | 0.00 | 0.00 | 0.00 | 46 | 1008.2 |
| 20260505052650 | 62 | 155 | 2.6 | 7.8 | 0.00 | 0.00 | 0.00 | 45 | 1008.0 |
| 20260505051613 | 62 | 141 | 3.5 | 8.7 | 0.00 | 0.00 | 0.00 | 44 | 1007.9 |
| 20260505050614 | 62 | 142 | 4.3 | 7.0 | 0.00 | 0.00 | 0.00 | 44 | 1008.0 |
| 20260505041645 | 63 | 140 | 5.2 | 8.7 | 0.00 | 0.00 | 0.00 | 41 | 1007.5 |
| 20260505040628 | 63 | 156 | 3.5 | 8.7 | 0.00 | 0.00 | 0.00 | 41 | 1007.4 |
| 20260505035619 | 64 | 182 | 3.5 | 7.0 | 0.00 | 0.00 | 0.00 | 41 | 1007.3 |
| 20260505034616 | 64 | 190 | 3.5 | 7.0 | 0.00 | 0.00 | 0.00 | 39 | 1007.1 |
| 20260505033616 | 65 | 142 | 5.2 | 9.6 | 0.00 | 0.00 | 0.00 | 37 | 1007.0 |
| 20260505032620 | 66 | 175 | 1.7 | 3.5 | 0.00 | 0.00 | 0.00 | 35 | 1006.7 |
| 20260505031620 | 66 | 159 | 0.0 | 2.6 | 0.00 | 0.00 | 0.00 | 35 | 1006.6 |
| 20260505030620 | 66 | 161 | 0.9 | 4.3 | 0.00 | 0.00 | 0.00 | 34 | 1006.4 |
| 20260505025616 | 67 | 168 | 0.0 | 4.3 | 0.00 | 0.00 | 0.00 | 34 | 1006.3 |
| 20260505024616 | 67 | 169 | 0.9 | 4.3 | 0.00 | 0.00 | 0.00 | 34 | 1006.1 |
| 20260505023614 | 67 | 171 | 1.7 | 4.3 | 0.00 | 0.00 | 0.00 | 33 | 1005.9 |
| 20260505022618 | 68 | 180 | 1.7 | 4.3 | 0.00 | 0.00 | 0.00 | 33 | 1005.9 |
| 20260505021617 | 68 | 184 | 2.6 | 4.3 | 0.00 | 0.00 | 0.00 | 31 | 1006.0 |
| 20260505020636 | 69 | 157 | 1.7 | 6.1 | 0.00 | 0.00 | 0.00 | 31 | 1005.9 |
| 20260505015625 | 70 | 200 | 1.7 | 6.1 | 0.00 | 0.00 | 0.00 | 30 | 1005.8 |
| 20260505014628 | 70 | 192 | 2.6 | 7.8 | 0.00 | 0.00 | 0.00 | 29 | 1005.7 |
| 20260505013629 | 71 | 148 | 1.7 | 6.1 | 0.00 | 0.00 | 0.00 | 29 | 1005.7 |
| 20260505012628 | 71 | 189 | 2.6 | 8.7 | 0.00 | 0.00 | 0.00 | 28 | 1005.8 |
| 20260505011612 | 72 | 153 | 2.6 | 7.0 | 0.00 | 0.00 | 0.00 | 28 | 1005.9 |
| 20260505010611 | 72 | 251 | 3.5 | 7.8 | 0.00 | 0.00 | 0.00 | 28 | 1006.0 |
| 20260505005622 | 72 | 174 | 1.7 | 8.7 | 0.00 | 0.00 | 0.00 | 29 | 1006.0 |
| 20260505004643 | 72 | 216 | 3.5 | 9.6 | 0.00 | 0.00 | 0.00 | 28 | 1006.1 |
| 20260505003626 | 72 | 223 | 3.5 | 8.7 | 0.00 | 0.00 | 0.00 | 29 | 1006.3 |
| 20260505002626 | 72 | 165 | 3.5 | 7.0 | 0.00 | 0.00 | 0.00 | 29 | 1006.3 |
| 20260505001626 | 71 | 159 | 3.5 | 11.3 | 0.00 | 0.00 | 0.00 | 30 | 1006.4 |
| 20260505000612 | 72 | 228 | 6.1 | 10.4 | 0.00 | 0.00 | 0.00 | 28 | 1006.4 |
| 20260504235624 | 73 | 196 | 5.2 | 10.4 | 0.00 | 0.00 | 0.00 | 29 | 1006.4 |
| 20260504234622 | 73 | 146 | 4.3 | 13.9 | 0.00 | 0.00 | 0.00 | 27 | 1006.4 |
| 20260504233622 | 73 | 188 | 7.0 | 11.3 | 0.00 | 0.00 | 0.00 | 27 | 1006.4 |
| 20260504232624 | 73 | 234 | 6.1 | 12.2 | 0.00 | 0.00 | 0.00 | 26 | 1006.4 |
| 20260504231624 | 72 | 221 | 7.0 | 11.3 | 0.00 | 0.00 | 0.00 | 25 | 1006.5 |
| 20260504230624 | 72 | 215 | 7.0 | 10.4 | 0.00 | 0.00 | 0.00 | 27 | 1006.5 |
| 20260504225618 | 71 | 198 | 7.8 | 13.9 | 0.00 | 0.00 | 0.00 | 28 | 1006.5 |
| 20260504224618 | 72 | 269 | 8.7 | 12.2 | 0.00 | 0.00 | 0.00 | 28 | 1006.7 |
| 20260504223637 | 71 | 261 | 13.0 | 18.2 | 0.00 | 0.00 | 0.00 | 28 | 1006.6 |
| 20260504222620 | 72 | 234 | 9.6 | 18.2 | 0.00 | 0.00 | 0.00 | 28 | 1006.5 |
| 20260504221617 | 73 | 271 | 7.8 | 12.2 | 0.00 | 0.00 | 0.00 | 23 | 1006.5 |
| 20260504220617 | 73 | 236 | 3.5 | 10.4 | 0.00 | 0.00 | 0.00 | 21 | 1006.5 |
| 20260504215649 | 74 | 316 | 7.8 | 11.3 | 0.00 | 0.00 | 0.00 | 21 | 1006.7 |
| 20260504214612 | 73 | 274 | 7.8 | 13.9 | 0.00 | 0.00 | 0.00 | 21 | 1006.8 |
| 20260504213611 | 74 | 291 | 7.8 | 13.0 | 0.00 | 0.00 | 0.00 | 22 | 1006.9 |
| 20260504212610 | 75 | 261 | 1.7 | 7.8 | 0.00 | 0.00 | 0.00 | 24 | 1007.0 |
| 20260504211634 | 73 | 275 | 3.5 | 13.0 | 0.00 | 0.00 | 0.00 | 21 | 1007.3 |
| 20260504210613 | 74 | 279 | 6.1 | 13.9 | 0.00 | 0.00 | 0.00 | 21 | 1007.4 |
| 20260504205626 | 73 | 305 | 7.0 | 12.2 | 0.00 | 0.00 | 0.00 | 22 | 1007.4 |
| 20260504204627 | 73 | 242 | 4.3 | 13.9 | 0.00 | 0.00 | 0.00 | 22 | 1007.6 |
| 20260504203630 | 72 | 308 | 2.6 | 9.6 | 0.00 | 0.00 | 0.00 | 25 | 1007.7 |
| 20260504202610 | 72 | 272 | 6.1 | 13.9 | 0.00 | 0.00 | 0.00 | 24 | 1007.8 |
| 20260504201629 | 72 | 257 | 7.0 | 13.0 | 0.00 | 0.00 | 0.00 | 25 | 1007.8 |
| 20260504200633 | 72 | 275 | 9.6 | 15.6 | 0.00 | 0.00 | 0.00 | 26 | 1007.9 |
| 20260504195621 | 72 | 290 | 7.0 | 9.6 | 0.00 | 0.00 | 0.00 | 27 | 1008.0 |
| 20260504194620 | 72 | 311 | 7.8 | 14.8 | 0.00 | 0.00 | 0.00 | 27 | 1008.1 |
| 20260504193621 | 72 | 274 | 5.2 | 15.6 | 0.00 | 0.00 | 0.00 | 27 | 1008.2 |
| 20260504192624 | 72 | 276 | 7.0 | 17.4 | 0.00 | 0.00 | 0.00 | 27 | 1008.2 |
| 20260504191625 | 72 | 270 | 8.7 | 10.4 | 0.00 | 0.00 | 0.00 | 26 | 1008.4 |
| 20260504190621 | 72 | 322 | 4.3 | 10.4 | 0.00 | 0.00 | 0.00 | 26 | 1008.5 |
| 20260504185617 | 72 | 248 | 3.5 | 7.0 | 0.00 | 0.00 | 0.00 | 28 | 1008.6 |
| 20260504184638 | 71 | 201 | 5.2 | 9.6 | 0.00 | 0.00 | 0.00 | 29 | 1008.6 |
| 20260504183617 | 71 | 316 | 0.9 | 6.1 | 0.00 | 0.00 | 0.00 | 29 | 1008.7 |
| 20260504182620 | 71 | 224 | 3.5 | 7.8 | 0.00 | 0.00 | 0.00 | 27 | 1009.0 |
| 20260504181620 | 72 | 153 | 1.7 | 7.0 | 0.00 | 0.00 | 0.00 | 29 | 1009.1 |
| 20260504180611 | 72 | 202 | 1.7 | 7.0 | 0.00 | 0.00 | 0.00 | 29 | 1009.3 |
| 20260504175620 | 72 | 263 | 0.9 | 7.0 | 0.00 | 0.00 | 0.00 | 29 | 1009.4 |
| 20260504174620 | 71 | 126 | 1.7 | 5.2 | 0.00 | 0.00 | 0.00 | 31 | 1009.5 |
| 20260504173624 | 69 | 155 | 1.7 | 6.1 | 0.00 | 0.00 | 0.00 | 33 | 1009.6 |
| 20260504172625 | 69 | 175 | 0.9 | 7.8 | 0.00 | 0.00 | 0.00 | 30 | 1009.7 |
| 20260504171624 | 69 | 187 | 0.9 | 7.0 | 0.00 | 0.00 | 0.00 | 33 | 1009.7 |
| 20260504170629 | 69 | 198 | 2.6 | 7.8 | 0.00 | 0.00 | 0.00 | 34 | 1009.7 |
| 20260504150641 | 65 | 164 | 2.6 | 8.7 | 0.00 | 0.00 | 0.00 | 39 | 1010.1 |
| 20260504140638 | 63 | 133 | 2.6 | 3.5 | 0.00 | 0.00 | 0.00 | 39 | 1010.2 |
| 20260504130613 | 58 | 105 | 2.6 | 5.2 | 0.00 | 0.00 | 0.00 | 42 | 1010.2 |
| 20260504110613 | 56 | 32 | 2.6 | 3.5 | 0.00 | 0.00 | 0.00 | 38 | 1010.2 |
| 20260504100614 | 57 | 91 | 0.0 | 0.0 | 0.00 | 0.00 | 0.00 | 37 | 1010.0 |
| 20260504081625 | 61 | 53 | 2.6 | 5.2 | 0.00 | 0.00 | 0.00 | 26 | 1009.1 |
| 20260504080610 | 60 | 49 | 2.6 | 4.3 | 0.00 | 0.00 | 0.00 | 28 | 1009.1 |